Rapid City, SD

12:40 PM MST on January 18, 2017 (GMT -0700)
Rapid City Regional

Weather History for KRAP - March, 2013

Change the Weather History Date:

Thursday, March 28, 2013

  Actual Average Record
Temperature  
Mean Temperature 44 °F 39 °F  
Max Temperature 62 °F 52 °F 83 °F (2015)
Min Temperature 25 °F 26 °F 4 °F (1944)
Degree Days  
Heating Degree Days 21 26  
Month to date heating degree days 909 841  
Since 1 July heating degree days 5898 6051  
Cooling Degree Days 0 0  
Month to date cooling degree days 0 0  
Year to date cooling degree days 0 0  
Moisture  
Dew Point 25 °F    
Average Humidity 50    
Maximum Humidity 75    
Minimum Humidity 25    
Precipitation  
Precipitation 0.00 in 0.04 in 0.55 in (1993)
Month to date precipitation 0.80 0.82  
Year to date precipitation 1.41 1.56  
Snow  
Snow 0.00 in 0.20 in 4.10 in (1977)
Month to date snowfall 12.9 7.8  
Since 1 July snowfall 33.3 31.2  
Snow Depth T in    
Sea Level Pressure  
Sea Level Pressure 30.08 in    
Wind  
Wind Speed 4 mph (NNE)    
Max Wind Speed 10 mph    
Max Gust Speed 18 mph    
Visibility 10 miles    
Events      
T = Trace of Precipitation, MM = Missing Value Source: NWS Daily Summary

Daily Weather History Graph

Daily Weather History Graph

Search for Another Location

Airport or City:

Trip Planner

Search our weather history database for the weather conditions in past years. The results will help you decide how hot, cold, wet, or windy it might be!

Date:

Astronomy

Mar. 28, 2013 Rise Set
Actual Time 6:40 AM MDT 7:14 PM MDT
Civil Twilight 6:11 AM MDT 7:43 PM MDT
Nautical Twilight 5:36 AM MDT 8:18 PM MDT
Astronomical Twilight 5:01 AM MDT 8:53 PM MDT
Moon 9:14 PM MDT (3/28) 7:05 AM MDT (3/28)
Length of Visible Light 13h 32m
Length of Day
12h 34m
Full, 98% of the Moon is Illuminated
Mar 28
Full
Apr 2
Last Quarter
Apr 10
New
Apr 18
First Quarter
Apr 25
Full

Hourly Weather History & Observations

Time (MDT) Temp. Windchill Dew Point Humidity Pressure Visibility Wind Dir Wind Speed Gust Speed Precip Events Conditions
12:52 AM 33.1 °F 28.7 °F 21.9 °F 64% 30.10 in 10.0 mi ENE 4.6 mph - N/A   Scattered Clouds
1:52 AM 35.1 °F - 23.0 °F 61% 30.08 in 10.0 mi Calm Calm - N/A   Overcast
2:52 AM 30.2 °F 24.3 °F 21.2 °F 69% 30.02 in 10.0 mi NW 5.8 mph - N/A   Partly Cloudy
3:52 AM 30.9 °F 26.2 °F 23.0 °F 72% 30.06 in 10.0 mi NNW 4.6 mph - N/A   Mostly Cloudy
4:52 AM 30.0 °F - 23.0 °F 75% 30.05 in 10.0 mi Calm Calm - N/A   Clear
5:52 AM 26.6 °F - 19.4 °F 74% 30.01 in 10.0 mi Calm Calm - N/A   Clear
6:52 AM 26.1 °F 21.9 °F 19.9 °F 78% 30.09 in 10.0 mi NW 3.5 mph - N/A   Clear
7:52 AM 37.0 °F - 27.0 °F 67% 30.09 in 10.0 mi Calm Calm - N/A   Clear
8:52 AM 42.1 °F 40.2 °F 28.0 °F 58% 30.10 in 10.0 mi SE 3.5 mph - N/A   Clear
9:52 AM 48.9 °F - 27.0 °F 43% 30.10 in 10.0 mi North 4.6 mph - N/A   Clear
10:52 AM 51.1 °F - 28.0 °F 41% 30.10 in 10.0 mi North 6.9 mph - N/A   Clear
11:52 AM 55.0 °F - 27.0 °F 34% 30.09 in 10.0 mi North 5.8 mph - N/A   Clear
12:52 PM 57.9 °F - 28.0 °F 32% 30.09 in 10.0 mi Calm Calm - N/A   Clear
1:52 PM 61.0 °F - 25.0 °F 25% 30.07 in 10.0 mi NE 4.6 mph - N/A   Clear
2:52 PM 60.1 °F - 26.1 °F 27% 30.08 in 10.0 mi SSE 8.1 mph - N/A   Clear
3:52 PM 61.0 °F - 24.1 °F 24% 30.06 in 10.0 mi SE 4.6 mph - N/A   Clear
4:52 PM 61.0 °F - 24.1 °F 24% 30.06 in 10.0 mi SE 5.8 mph - N/A   Clear
5:52 PM 60.1 °F - 25.0 °F 26% 30.08 in 10.0 mi SE 6.9 mph - N/A   Clear
6:52 PM 53.1 °F - 28.9 °F 40% 30.10 in 10.0 mi ESE 5.8 mph - N/A   Clear
7:52 PM 48.0 °F - 28.0 °F 46% 30.10 in 10.0 mi Calm Calm - N/A   Clear
8:52 PM 44.1 °F - 27.0 °F 51% 30.11 in 10.0 mi Calm Calm - N/A   Clear
9:52 PM 41.0 °F 39.0 °F 27.0 °F 57% 30.11 in 10.0 mi West 3.5 mph - N/A   Clear
10:52 PM 44.1 °F 41.5 °F 28.0 °F 53% 30.10 in 10.0 mi WNW 4.6 mph - N/A   Overcast
11:52 PM 41.0 °F 38.0 °F 27.0 °F 57% 30.10 in 10.0 mi WNW 4.6 mph - N/A   Mostly Cloudy